SCP
0 0 0 0 0 0 0 0 0 0 0 0 0 0 0 0 0 0 0 0 0 0 0 0 0 0 0 0 0 0 0 0 0 0 0 0 0 0
0 0 0 0 0 0 0 0 0 0 0 0 0 0 0 0 0 0 0 0 0 0 0 0 0 0 0 0 0 0 0 0 0 0 0 0 0 0
0 0 0 0 0 0 0 0 0 0 0 0 0 0 0 0 0 0 0 0 0 0 0 0 0 0 0 0 0 0 0 0 0 0 0 0 0 0
0 0 0 0 0 0 0 0 0 0 0 0 0 0 0 0 0 0 0 -0 -0 0 0 0 0 0 0 0 0 0 0 0 0 0 0 0 0 0
0 0 0 0 0 0 0 0 0 0 0 0 0 0 0 0 0 -0 -0 -0 -0 -0 -0 0 0 0 0 0 0 0 0 0 0 0 0 0 0 0
0 0 0 0 0 0 0 0 0 0 0 0 0 0 0 -0 -0 -0 0 -0 0 0 0 0 0 0 0 0 0 0 0 0 0 0 0 0 0 0
0 0 0 0 0 0 0 0 0 0 0 0 0 0 -0 -0 -0 -0 -0 -0 -0 -0 0 -0 -0 -0 0 0 0 0 0 0 0 0 0 0 0 0
0 0 0 0 0 0 0 0 0 0 0 0 0 0 -0 -0 -0 -0 -0 -0 -0 0 -0 -0 -0 -0 0 0 0 0 0 0 0 0 0 0 0 0
0 0 0 0 0 0 0 0 0 0 0 0 0 0 0 -0 0 0 0 0 0 0 0 -0 0 0 0 0 0 0 0 0 0 0 0 0 0 0
0 0 0 0 0 0 0 0 0 0 0 0 0 0 0 0 0 0 0 0 0 0 0 0 0 0 0 0 0 0 0 0 0 0 0 0 0 0
0 0 0 0 0 0 0 0 0 0 0 0 0 0 0 0 0 0 0 0 0 0 0 0 0 0 0 0 0 0 0 0 0 0 0 0 0 0
0 0 0 0 0 0 0 0 0 0 0 0 0 0 0 0 0 0 0 0 0 0 0 0 0 0 0 0 0 0 0 0 0 0 0 0 0 0
0 0 0 0 0 0 0 0 0 0 0 0 0 0 0 0 0 0 0 0 0 0 0 0 0 0 0 0 0 0 0 0 0 0 0 0 0 0
0 0 0 0 0 0 0 0 0 0 0 0 0 0 0 0 0 0 0 0 0 0 0 0 0 0 0 0 0 0 0 0 0 0 0 0 0 0
0 0 0 0 0 0 0 0 0 0 0 0 0 0 0 0 0 0 0 0 0 0 0 0 0 0 0 0 0 0 0 0 0 0 0 0 0 0
0 0 0 0 0 0 0 0 0 0 0 0 0 0 0 0 0 0 0 0 0 0 0 0 0 0 0 0 0 0 0 0 0 0 0 0 0 0
0 0 0 0 0 0 0 0 0 0 0 0 0 0 0 0 0 0 0 0 0 0 0 0 0 0 0 0 0 0 0 0 0 0 0 0 0 0
0 0 0 0 0 0 0 0 0 0 0 0 0 0 0 0 0 0 0 0 0 0 0 0 0 0 0 0 0 0 0 0 0 0 0 0 0 0
0 0 0 0 0 0 0 0 0 0 0 0 0 0 0 0 0 0 0 0 0 0 0 0 0 0 0 0 0 0 0 0 0 0 0 0 0 0
0 0 0 0 0 0 0 0 0 0 0 0 0 0 0 0 0 0 0 0 0 0 0 0 0 0 0 0 0 0 0 0 0 0 0 0 0 0
0 0 0 0 0 0 0 0 0 0 0 0 0 0 0 0 0 0 0 0 0 0 0 0 0 0 0 0 0 0 0 0 0 0 0 0 0 0
0 0 0 0 0 0 0 0 0 0 0 0 0 0 0 0 0 0 0 0 0 0 0 0 0 0 0 0 0 0 0 0 0 0 0 0 0 0
0 0 0 0 0 0 0 0 0 0 0 0 0 0 0 0 0 0 0 0 0 0 0 0 0 0 0 0 0 0 0 0 0 0 0 0 0 -0
Wind_Speed_500mb
35 34 34 34 35 39 43 46 48 57 91 87 86 80 77 75 68 58 58 50 64 58 53 54 55 59 58 54 55 58 68 86 92 88 85 86 88 83
33 34 31 33 34 36 39 42 46 57 82 87 92 88 87 82 69 54 51 45 62 60 44 42 45 54 61 59 53 54 62 72 77 77 88 82 81 80
26 30 31 32 32 34 38 43 48 51 69 93 84 84 83 72 52 45 49 52 58 55 49 31 36 43 53 55 51 53 58 63 72 78 80 82 78 76
25 26 25 26 28 32 37 44 47 48 57 78 86 81 71 61 55 59 54 44 61 54 43 31 29 35 38 39 41 44 48 58 61 64 72 78 70 74
27 27 23 22 22 28 35 41 46 49 55 62 76 66 62 57 53 52 43 48 42 39 35 31 33 33 31 28 20 16 36 45 54 53 57 62 62 65
23 25 23 20 21 26 32 36 38 43 49 52 57 58 55 53 52 55 47 48 46 37 39 33 40 35 32 33 29 17 6 3 20 30 51 48 52 60
22 23 22 21 22 26 32 31 34 38 41 43 46 45 49 53 54 53 53 52 48 39 32 31 35 36 33 34 33 31 21 17 16 14 10 10 23 33
23 23 24 22 22 24 26 29 32 36 38 39 42 45 41 42 43 45 45 47 42 41 46 41 39 35 32 29 31 29 31 27 28 27 21 19 17 17
28 26 24 24 24 23 24 26 28 30 33 38 38 38 41 43 44 40 38 36 34 33 34 27 27 28 25 23 27 30 29 28 29 29 29 32 33 33
32 30 28 25 26 27 26 24 25 25 27 30 33 35 35 34 33 37 35 30 23 25 27 24 30 33 34 23 17 19 21 20 19 19 19 22 23 26
36 35 33 30 27 29 32 31 28 27 27 29 31 32 32 31 33 32 25 25 25 21 28 20 24 20 29 28 22 14 12 10 7 7 5 4 5 3
39 40 38 37 33 33 36 36 36 31 32 28 26 30 35 33 30 29 28 26 26 16 23 24 23 27 7 19 14 11 8 6 4 2 4 6 9 8
49 43 38 41 41 39 40 42 40 40 39 40 39 34 33 37 37 31 29 28 25 23 22 20 18 16 10 11 15 13 8 6 9 11 10 7 7 7
57 47 42 44 46 45 44 43 42 44 46 46 44 43 40 36 37 40 38 34 33 31 28 26 22 22 19 13 7 10 9 10 7 6 6 9 13 17
61 53 49 48 48 49 48 47 46 46 46 48 46 44 42 40 38 38 38 38 36 35 35 32 30 29 27 24 24 23 19 18 15 13 13 13 13 12
58 57 55 54 52 52 50 48 48 47 49 47 44 42 43 42 38 38 37 37 36 33 32 31 32 33 31 30 28 26 27 21 23 27 26 23 21 20
51 55 58 57 53 52 50 50 48 47 49 46 45 44 43 42 40 40 39 37 37 37 34 35 34 33 32 32 29 27 26 24 25 25 26 24 25 28
45 54 52 53 53 51 49 48 47 46 45 44 43 41 41 41 41 40 40 39 38 35 35 34 32 30 27 25 23 22 20 19 21 24 26 27 26 27
41 47 49 48 49 51 52 53 54 47 42 40 42 42 41 43 43 40 37 37 36 34 30 26 24 24 22 19 18 14 16 18 22 26 29 30 32 30
45 47 47 49 51 54 56 57 53 49 49 50 50 51 51 48 45 43 40 37 36 31 26 21 18 16 14 15 15 17 19 24 27 30 33 34 35 36
29 31 34 38 40 42 43 42 42 41 40 39 37 35 33 32 33 32 29 23 19 16 16 19 18 17 18 21 23 19 19 25 29 30 33 39 42 41
27 29 30 31 32 32 32 31 31 29 27 26 24 22 21 21 23 24 24 24 22 20 20 19 17 16 16 18 21 23 22 24 24 26 29 29 30 23
30 29 29 29 29 30 30 30 28 26 25 24 24 23 22 20 19 19 18 16 16 15 14 14 12 12 14 16 18 16 13 16 16 12 10 12 14 20
Wind_Direction_500mb
291 291 295 301 299 295 294 298 296 297 305 309 314 318 316 314 311 307 302 294 304 294 288 290 297 286 278 270 267 269 265 256 256 255 253 255 257 257
291 289 289 288 289 290 293 294 292 288 284 300 309 313 315 312 313 308 307 300 295 301 289 287 298 305 283 277 275 272 265 260 255 254 254 256 253 253
307 301 297 289 286 289 292 294 292 291 287 301 306 315 320 319 316 307 311 302 300 306 289 288 304 307 314 294 283 274 267 257 253 252 255 253 253 258
332 322 313 296 290 293 295 296 297 296 298 300 307 315 322 324 315 313 317 307 304 302 289 290 312 318 308 319 309 298 287 255 247 249 252 248 255 259
354 345 333 320 310 302 302 302 302 303 303 305 307 315 320 328 327 325 318 317 317 310 308 301 313 315 304 309 331 343 263 266 245 241 235 244 251 255
331 347 348 338 329 322 316 313 314 313 311 312 312 313 317 324 324 323 329 320 319 325 324 313 311 313 308 287 295 319 355 132 159 187 232 234 235 241
316 321 323 330 332 332 331 333 324 323 326 326 326 319 315 317 320 325 322 320 326 328 321 317 311 310 303 294 279 285 287 279 254 255 121 110 201 184
302 301 308 316 317 314 316 321 322 326 332 333 339 332 329 322 320 325 330 330 327 320 317 318 317 312 304 293 290 289 283 282 271 263 263 284 291 262
293 295 297 303 306 308 311 313 317 319 322 328 332 336 336 339 336 331 326 330 337 338 331 340 342 338 324 315 290 286 286 288 289 287 281 286 278 266
285 287 288 290 296 301 305 309 314 318 316 322 327 331 333 336 338 335 336 341 350 360 8 11 10 11 15 2 329 307 299 298 299 292 278 279 271 258
279 280 282 283 285 291 296 301 304 308 310 314 317 321 326 329 332 337 342 342 354 360 6 354 4 16 18 22 26 35 36 44 44 44 48 129 147 170
273 273 276 280 280 283 287 293 296 300 299 296 294 302 308 313 319 325 331 337 342 341 349 355 356 4 356 26 15 20 27 42 64 345 329 5 10 6
271 269 270 274 277 279 282 285 291 294 294 297 298 298 297 301 307 308 309 315 320 324 322 332 334 348 4 344 8 26 9 320 316 308 294 275 263 266
271 268 267 267 272 276 279 281 284 287 292 292 293 294 292 289 291 296 300 301 302 304 305 305 304 307 307 313 277 311 320 328 322 303 281 278 275 269
270 271 267 267 268 271 274 278 282 286 286 287 290 292 291 290 289 288 291 295 297 295 296 297 296 295 292 285 282 285 294 285 287 250 245 255 266 266
265 267 267 266 268 271 271 273 278 281 284 286 288 288 288 289 288 287 289 290 289 291 288 286 287 288 290 290 290 283 280 276 276 284 293 295 291 279
263 261 263 267 268 269 274 277 277 278 281 284 283 283 283 282 285 291 292 290 288 288 285 287 287 288 289 290 293 290 285 283 283 286 286 287 291 292
269 267 267 268 272 275 276 278 281 284 283 279 276 276 276 276 282 284 287 290 290 290 290 289 289 287 286 283 286 286 286 289 293 299 300 296 294 295
262 267 274 277 277 277 279 282 285 288 282 276 273 276 274 273 276 279 281 283 287 291 287 282 284 287 295 297 287 288 287 288 297 304 308 311 314 316
265 264 264 266 270 275 278 281 281 278 276 275 273 273 271 269 271 273 275 278 280 274 267 270 270 267 276 292 298 303 305 306 311 314 318 318 315 316
279 275 274 274 276 276 277 278 279 280 280 280 280 278 274 268 267 267 267 263 262 258 252 246 243 248 253 263 268 277 277 290 299 305 309 311 317 326
304 298 295 293 292 291 289 288 286 285 283 280 277 271 264 259 259 260 260 259 256 253 251 251 253 256 252 250 258 266 272 275 279 289 295 299 306 306
313 308 303 298 293 290 288 287 286 283 278 275 271 267 264 260 255 252 251 252 254 253 248 251 252 253 249 253 268 267 277 289 305 321 315 309 300 300
Wind_Speed_850mb
35 34 34 34 35 39 43 46 48 57 91 87 86 80 77 75 68 58 58 50 64 58 53 54 55 59 58 54 55 58 68 86 92 88 85 86 88 83
33 34 31 33 34 36 39 42 46 57 82 87 92 88 87 82 69 54 51 45 62 60 44 42 45 54 61 59 53 54 62 72 77 77 88 82 81 80
26 30 31 32 32 34 38 43 48 51 69 93 84 84 83 72 52 45 49 52 58 55 49 31 36 43 53 55 51 53 58 63 72 78 80 82 78 76
25 26 25 26 28 32 37 44 47 48 57 78 86 81 71 61 55 59 54 44 61 54 43 31 29 35 38 39 41 44 48 58 61 64 72 78 70 74
27 27 23 22 22 28 35 41 46 49 55 62 76 66 62 57 53 52 43 48 42 39 35 31 33 33 31 28 20 16 36 45 54 53 57 62 62 65
23 25 23 20 21 26 32 36 38 43 49 52 57 58 55 53 52 55 47 48 46 37 39 33 40 35 32 33 29 17 6 3 20 30 51 48 52 60
22 23 22 21 22 26 32 31 34 38 41 43 46 45 49 53 54 53 53 52 48 39 32 31 35 36 33 34 33 31 21 17 16 14 10 10 23 33
23 23 24 22 22 24 26 29 32 36 38 39 42 45 41 42 43 45 45 47 42 41 46 41 39 35 32 29 31 29 31 27 28 27 21 19 17 17
28 26 24 24 24 23 24 26 28 30 33 38 38 38 41 43 44 40 38 36 34 33 34 27 27 28 25 23 27 30 29 28 29 29 29 32 33 33
32 30 28 25 26 27 26 24 25 25 27 30 33 35 35 34 33 37 35 30 23 25 27 24 30 33 34 23 17 19 21 20 19 19 19 22 23 26
36 35 33 30 27 29 32 31 28 27 27 29 31 32 32 31 33 32 25 25 25 21 28 20 24 20 29 28 22 14 12 10 7 7 5 4 5 3
39 40 38 37 33 33 36 36 36 31 32 28 26 30 35 33 30 29 28 26 26 16 23 24 23 27 7 19 14 11 8 6 4 2 4 6 9 8
49 43 38 41 41 39 40 42 40 40 39 40 39 34 33 37 37 31 29 28 25 23 22 20 18 16 10 11 15 13 8 6 9 11 10 7 7 7
57 47 42 44 46 45 44 43 42 44 46 46 44 43 40 36 37 40 38 34 33 31 28 26 22 22 19 13 7 10 9 10 7 6 6 9 13 17
61 53 49 48 48 49 48 47 46 46 46 48 46 44 42 40 38 38 38 38 36 35 35 32 30 29 27 24 24 23 19 18 15 13 13 13 13 12
58 57 55 54 52 52 50 48 48 47 49 47 44 42 43 42 38 38 37 37 36 33 32 31 32 33 31 30 28 26 27 21 23 27 26 23 21 20
51 55 58 57 53 52 50 50 48 47 49 46 45 44 43 42 40 40 39 37 37 37 34 35 34 33 32 32 29 27 26 24 25 25 26 24 25 28
45 54 52 53 53 51 49 48 47 46 45 44 43 41 41 41 41 40 40 39 38 35 35 34 32 30 27 25 23 22 20 19 21 24 26 27 26 27
41 47 49 48 49 51 52 53 54 47 42 40 42 42 41 43 43 40 37 37 36 34 30 26 24 24 22 19 18 14 16 18 22 26 29 30 32 30
45 47 47 49 51 54 56 57 53 49 49 50 50 51 51 48 45 43 40 37 36 31 26 21 18 16 14 15 15 17 19 24 27 30 33 34 35 36
29 31 34 38 40 42 43 42 42 41 40 39 37 35 33 32 33 32 29 23 19 16 16 19 18 17 18 21 23 19 19 25 29 30 33 39 42 41
27 29 30 31 32 32 32 31 31 29 27 26 24 22 21 21 23 24 24 24 22 20 20 19 17 16 16 18 21 23 22 24 24 26 29 29 30 23
30 29 29 29 29 30 30 30 28 26 25 24 24 23 22 20 19 19 18 16 16 15 14 14 12 12 14 16 18 16 13 16 16 12 10 12 14 20
Wind_Direction_850mb
291 291 295 301 299 295 294 298 296 297 305 309 314 318 316 314 311 307 302 294 304 294 288 290 297 286 278 270 267 269 265 256 256 255 253 255 257 257
291 289 289 288 289 290 293 294 292 288 284 300 309 313 315 312 313 308 307 300 295 301 289 287 298 305 283 277 275 272 265 260 255 254 254 256 253 253
307 301 297 289 286 289 292 294 292 291 287 301 306 315 320 319 316 307 311 302 300 306 289 288 304 307 314 294 283 274 267 257 253 252 255 253 253 258
332 322 313 296 290 293 295 296 297 296 298 300 307 315 322 324 315 313 317 307 304 302 289 290 312 318 308 319 309 298 287 255 247 249 252 248 255 259
354 345 333 320 310 302 302 302 302 303 303 305 307 315 320 328 327 325 318 317 317 310 308 301 313 315 304 309 331 343 263 266 245 241 235 244 251 255
331 347 348 338 329 322 316 313 314 313 311 312 312 313 317 324 324 323 329 320 319 325 324 313 311 313 308 287 295 319 355 132 159 187 232 234 235 241
316 321 323 330 332 332 331 333 324 323 326 326 326 319 315 317 320 325 322 320 326 328 321 317 311 310 303 294 279 285 287 279 254 255 121 110 201 184
302 301 308 316 317 314 316 321 322 326 332 333 339 332 329 322 320 325 330 330 327 320 317 318 317 312 304 293 290 289 283 282 271 263 263 284 291 262
293 295 297 303 306 308 311 313 317 319 322 328 332 336 336 339 336 331 326 330 337 338 331 340 342 338 324 315 290 286 286 288 289 287 281 286 278 266
285 287 288 290 296 301 305 309 314 318 316 322 327 331 333 336 338 335 336 341 350 360 8 11 10 11 15 2 329 307 299 298 299 292 278 279 271 258
279 280 282 283 285 291 296 301 304 308 310 314 317 321 326 329 332 337 342 342 354 360 6 354 4 16 18 22 26 35 36 44 44 44 48 129 147 170
273 273 276 280 280 283 287 293 296 300 299 296 294 302 308 313 319 325 331 337 342 341 349 355 356 4 356 26 15 20 27 42 64 345 329 5 10 6
271 269 270 274 277 279 282 285 291 294 294 297 298 298 297 301 307 308 309 315 320 324 322 332 334 348 4 344 8 26 9 320 316 308 294 275 263 266
271 268 267 267 272 276 279 281 284 287 292 292 293 294 292 289 291 296 300 301 302 304 305 305 304 307 307 313 277 311 320 328 322 303 281 278 275 269
270 271 267 267 268 271 274 278 282 286 286 287 290 292 291 290 289 288 291 295 297 295 296 297 296 295 292 285 282 285 294 285 287 250 245 255 266 266
265 267 267 266 268 271 271 273 278 281 284 286 288 288 288 289 288 287 289 290 289 291 288 286 287 288 290 290 290 283 280 276 276 284 293 295 291 279
263 261 263 267 268 269 274 277 277 278 281 284 283 283 283 282 285 291 292 290 288 288 285 287 287 288 289 290 293 290 285 283 283 286 286 287 291 292
269 267 267 268 272 275 276 278 281 284 283 279 276 276 276 276 282 284 287 290 290 290 290 289 289 287 286 283 286 286 286 289 293 299 300 296 294 295
262 267 274 277 277 277 279 282 285 288 282 276 273 276 274 273 276 279 281 283 287 291 287 282 284 287 295 297 287 288 287 288 297 304 308 311 314 316
265 264 264 266 270 275 278 281 281 278 276 275 273 273 271 269 271 273 275 278 280 274 267 270 270 267 276 292 298 303 305 306 311 314 318 318 315 316
279 275 274 274 276 276 277 278 279 280 280 280 280 278 274 268 267 267 267 263 262 258 252 246 243 248 253 263 268 277 277 290 299 305 309 311 317 326
304 298 295 293 292 291 289 288 286 285 283 280 277 271 264 259 259 260 260 259 256 253 251 251 253 256 252 250 258 266 272 275 279 289 295 299 306 306
313 308 303 298 293 290 288 287 286 283 278 275 271 267 264 260 255 252 251 252 254 253 248 251 252 253 249 253 268 267 277 289 305 321 315 309 300 300